Back to catalog

STARLINK-37610

AliveCommunicationsVLEO
NORAD 100029·PAYLOAD·🇺🇸 United States

Launched Jul 14, 2026 from Cape Canaveral Space Force Station

Loading…

Next Passes (next 24 hours)

TLE

FreshSource: Space-Track

Epoch: Sep 14, 2026, 08:04 UTC

1 A0029U 26161B   26257.33660991  .00018874  00000-0  56864-3 0  9996
2 A0029  53.1613  26.5659 0001268  74.9131 285.2012 15.34382823  9667

Track STARLINK-37610 in real time with AllMySat

Download on the App Store